Location: Beaumont
(50.6402°N, 1.9820°E)
Time: 10:11:34
(UTC+00:00)

Daily predictions for brighter satellites

Satellite Brightness Start Highest point End
(mag) Time Altitude Azimuth Time Altitude Azimuth Time Altitude Azimuth
SL-16 R/B 4.4 16:23:10 10° NNW 16:24:07 10° NNW 16:25:03 10° N
NOAA 11 4.2 16:19:30 10° SSE 16:24:56 84° ENE 16:30:25 10° NNW
USA 305 3.1 16:23:33 10° WNW 16:27:45 56° N 16:31:56 10° E
Cosmos 1842 Rocket 3.9 16:24:53 10° SSW 16:29:21 76° W 16:33:52 10° N
CZ-2C R/B 4.3 16:27:12 10° ENE 16:29:23 13° E 16:31:33 10° ESE
Cosmos 2219 Rocket 4.0 16:27:38 10° N 16:30:01 13° NNE 16:32:25 10° NE
SL-24 R/B - RUBIN 2 3.7 16:25:39 10° NW 16:30:15 81° SW 16:34:34 10° SE
Meteor 1-25 Rocket 4.2 16:24:45 10° N 16:30:22 78° ENE 16:36:00 10° SSE
Nadezhda 4 Rocket 4.3 16:25:16 10° NNW 16:31:37 80° W 16:37:57 10° S
H-2A R/B 4.5 16:30:09 10° SSW 16:33:32 35° W 16:36:56 10° NNW
Cosmos 1606 3.9 16:30:13 10° SSW 16:33:49 42° WNW 16:37:29 10° N
CZ-4B R/B 2.7 16:29:58 10° SSE 16:33:49 62° ENE 16:37:31 10° N
Cosmos 1500 3.5 16:30:16 10° N 16:33:50 41° ENE 16:37:22 10° SSE
Cosmos 1464 Rocket 4.4 16:27:46 10° SSW 16:34:08 73° W 16:40:33 10° N
Cosmos 44 Rocket 3.5 16:30:02 10° NW 16:34:53 50° NE 16:39:34 10° ESE
COSMOS 2406 3.3 16:35:39 10° SSW 16:41:21 71° ESE 16:47:04 10° NNE
Cosmos 468 Rocket 4.1 16:37:25 10° SSW 16:42:36 81° WNW 16:47:52 10° NNE
Cosmos 1428 Rocket 4.4 16:40:45 10° N 16:46:53 74° ENE 16:53:04 10° SSE
Cosmos 1092 Rocket 4.1 16:45:38 10° N 16:52:02 89° E 16:58:21 10° S
Cosmos 2298 Rocket 4.5 16:48:44 10° NNW 16:53:44 38° NE 16:58:41 10° SE
CZ-4B R/B 3.8 16:50:04 10° ESE 16:54:47 33° ENE 16:59:28 10° N
Meteor 2-21 4.4 16:49:31 10° N 16:55:38 76° ENE 17:01:40 10° SSE
USA 267 3.7 16:50:26 11° ENE 16:56:25 47° SE 17:02:40 10° SSW
CZ-2D R/B 3.8 16:53:22 10° SE 16:56:52 35° ENE 17:00:22 10° N
ATLAS CENTAUR R/B 2.9 16:48:11 10° SW 16:58:05 79° SE 17:01:31 15° ENE
Cosmos 1939 Rocket 2.8 16:55:24 10° SSE 16:59:29 78° ENE 17:03:32 10° N
USA 306 2.9 16:55:53 10° WNW 17:00:08 65° NNE 17:03:51 13° E
Cosmos 1633 Rocket 3.3 16:56:33 10° N 17:00:47 45° ENE 17:05:00 10° SSE
COSMO-SKYMED 1 4.0 16:59:10 15° ENE 17:00:59 18° E 17:04:00 10° SE
Cosmos 1151 Rocket 3.5 16:58:06 10° SSE 17:02:08 39° E 17:06:13 10° NNE
Cosmos 1666 2.8 16:58:57 10° N 17:02:35 48° ENE 17:06:11 10° SSE
Cosmos 1782 2.7 17:00:11 10° S 17:04:09 72° E 17:08:08 10° NNE
Cosmos 2360 Rocket 3.2 16:59:39 10° NNW 17:04:23 26° NE 17:08:17 13° E
Radarsat 4.5 16:59:41 10° SSE 17:04:51 72° ENE 17:10:03 10° NNW
ISS -1.1 17:02:43 10° W 17:05:24 22° SW 17:08:06 10° SSE
SeaSat 1 3.8 17:03:42 10° NNE 17:08:08 34° NW 17:12:32 10° WSW
SL-08 R/B 3.7 17:04:03 10° N 17:08:43 65° WNW 17:13:17 10° SSW
Cosmos 1763 Rocket 4.3 17:04:05 10° SW 17:09:01 50° WNW 17:14:03 10° NNE
PAYLOAD B 4.3 17:04:08 10° SE 17:09:36 57° ENE 17:15:05 10° N
Cosmos 1818 3.5 17:04:57 10° NW 17:10:28 83° NE 17:15:56 10° SE
YAOGAN 1 4.1 17:11:21 16° NE 17:11:21 16° NE 17:13:22 10° NNE
ATLAS 5 CENTAUR R/B 2.5 17:08:34 10° NW 17:17:25 57° NNE 17:19:39 19° E
Cosmos 1536 4.4 17:14:47 10° NNE 17:16:30 17° NE 17:16:30 17° NE
Cosmos 2279 Rocket 4.0 17:12:10 10° S 17:18:13 58° E 17:24:18 10° NNE
Cosmos 2142 Rocket 4.5 17:13:05 10° S 17:19:09 62° E 17:25:20 10° NNE
Cosmos 841 Rocket 3.5 17:14:01 10° SSW 17:19:11 83° WNW 17:24:22 10° NNE
Cosmos 2266 Rocket 4.3 17:13:38 10° N 17:19:44 44° ENE 17:25:49 10° SE
ERBS 3.5 17:17:05 10° NW 17:19:51 26° N 17:20:46 22° NNE
USA 307 2.8 17:16:28 10° WNW 17:20:44 72° NNE 17:23:33 21° E
CZ-4C R/B 3.3 17:14:15 10° NW 17:21:21 70° SW 17:29:40 10° SSE
Lacrosse 5 rocket 1.6 17:19:57 10° WNW 17:23:48 63° SW 17:27:52 10° SE
NOSS 3-4 (A) 4.4 17:19:02 10° NW 17:24:58 34° NNE 17:28:52 21° ENE
NOSS 3-4 (C) 4.4 17:19:08 10° NW 17:25:03 34° NNE 17:28:56 21° ENE
SL-08 RB Rocket 4.4 17:22:11 10° SE 17:26:12 30° ENE 17:30:12 10° N
ATLAS 2AS CENTAUR R/B 3.9 17:20:44 10° NW 17:27:19 30° N 17:31:18 19° NE
Cosmos 2322 Rocket 2.4 17:21:58 10° NNW 17:27:30 48° NE 17:33:01 10° SE
Cosmos 1933 Rocket 4.1 17:23:52 10° N 17:27:51 33° ENE 17:31:46 10° SE
COSMOS 2428 4.1 17:24:03 10° N 17:27:57 18° NNE 17:28:43 18° NE
Cosmos 2208 Rocket 4.2 17:23:22 10° S 17:28:39 56° ESE 17:32:51 16° NE
Cosmos 2150 Rocket 3.9 17:24:18 10° NNW 17:29:28 64° ENE 17:34:39 10° SE
Cosmos 1666 Rocket 3.7 17:25:55 10° NNW 17:30:23 80° W 17:34:46 10° S
Cosmos 1980 Rocket 3.4 17:25:16 10° NW 17:30:39 45° WSW 17:35:58 10° S
AQUARIUS 4.5 17:26:22 10° S 17:30:50 69° WSW 17:35:20 10° NNW
USA 234 3.3 17:25:07 10° SE 17:31:41 81° SSW 17:38:15 10° WNW
Cosmos 1328 Rocket 3.6 17:27:48 10° S 17:32:09 56° E 17:36:01 13° NNE
Cosmos 1470 Rocket 3.6 17:29:33 10° N 17:34:00 58° ENE 17:38:24 10° SSE
Cosmos 1544 3.3 17:30:39 10° N 17:34:06 42° ENE 17:37:34 10° SSE
Cosmos 1125 Rocket 3.4 17:30:27 10° NNW 17:35:42 66° ENE 17:40:57 10° SE
X-37B 2.9 17:36:21 10° S 17:37:39 12° SSE 17:37:49 12° SSE
Cosmos 1812 2.7 17:34:06 10° SSW 17:37:57 81° W 17:41:45 11° N
PSLV R/B 3.9 17:35:13 10° S 17:38:55 74° WSW 17:42:42 10° NNW
H-2A R/B 1.9 17:34:35 10° SSE 17:39:43 87° ENE 17:44:44 10° NNW
Cosmos 1634 Rocket 4.4 17:34:24 10° SSW 17:40:42 69° WNW 17:47:03 10° N
Meteor 1-11 Rocket 3.8 17:35:30 10° N 17:41:02 54° ENE 17:46:40 10° SSE
Okean O Rocket 1.7 17:37:09 10° SE 17:41:29 53° ENE 17:45:51 10° N
Meteor 2-8 Rocket 4.4 17:36:03 10° S 17:42:08 66° E 17:48:15 10° NNE
Meteor 1-10 Rocket 4.4 17:36:45 10° SSE 17:42:16 51° E 17:47:11 13° NNE
ATLAS CENTAUR R/B 3.7 17:40:21 10° NW 17:42:54 15° N 17:44:13 13° NNE
USA 308 2.8 17:39:10 10° WNW 17:43:26 86° NNE 17:45:21 32° ESE
GEOS 3 Rocket 4.2 17:41:55 29° ENE 17:43:45 37° NNE 17:48:29 10° NW
SL-16 R/B 2.1 17:42:30 10° NNW 17:48:13 81° ENE 17:53:54 10° SSE
Cosmos 2237 Rocket 4.1 17:46:32 10° N 17:49:04 13° NNE 17:49:04 13° NNE
SKYMED 2 3.7 17:47:47 32° NE 17:49:25 50° E 17:53:38 10° S
ARGOS 3.0 17:46:14 10° SSE 17:51:36 70° ENE 17:56:59 10° N
Cosmos 2082 Rocket 2.6 17:46:48 10° SW 17:52:25 61° WNW 17:56:57 16° NNE
CZ-4 R/B 3.7 17:58:56 12° N 17:58:56 12° N 17:59:13 10° N
deb Chang Zheng 4 3.4 17:52:44 10° SSE 17:57:03 85° ENE 18:01:23 10° NNW
COSMOS 2455 3.4 17:54:53 10° WSW 18:00:46 53° NW 18:04:54 20° NNE
Cosmos 1833 Rocket 4.3 18:01:14 10° WSW 18:06:07 30° NW 18:10:34 12° NNE
Feng Yun 1-1 Rocket 4.3 18:00:42 10° SSE 18:06:32 64° ENE 18:12:16 10° N
USA 305 3.0 18:03:30 10° WNW 18:07:44 69° SSW 18:08:52 46° SE
Cosmos 2333 Rocket 2.8 18:02:40 10° NNW 18:08:02 37° NE 18:08:05 37° NE
Cosmos 1356 Rocket 3.3 18:04:28 10° NNW 18:08:42 88° ENE 18:12:58 10° SSE
CZ-2C R/B 2.4 18:06:50 19° NNE 18:10:34 79° ESE 18:15:45 10° SSW
SL-16 R/B 4.4 18:09:54 10° N 18:11:02 11° NNE 18:11:02 11° NNE
Cosmos 2219 Rocket 3.0 18:10:39 10° NNW 18:15:04 33° NNE 18:15:04 33° NNE
Cosmos 1655 Rocket 4.1 18:10:07 10° NNW 18:16:32 79° W 18:22:53 10° S
Aureole 3 Rocket 3.6 18:13:52 10° S 18:18:33 62° E 18:25:13 10° NNE
Cosmos 1515 Rocket 3.5 18:14:50 10° S 18:19:16 89° W 18:20:26 49° N
Cosmos 921 Rocket 3.2 18:17:35 10° SSW 18:21:47 68° WNW 18:22:47 49° N
Spot 2 4.3 18:23:28 28° SSE 18:26:13 74° ENE 18:31:16 10° NNW
Cosmos 371 Rocket 3.7 18:30:10 10° NNW 18:33:50 50° N 18:33:50 50° N
CZ-4B R/B 4.1 18:30:03 10° S 18:35:13 46° W 18:40:20 10° NNW
Cosmos 2333 4.3 18:30:17 10° NNW 18:35:33 56° NNE 18:35:33 56° NNE
COSMO-SKYMED 1 3.1 18:36:23 43° NNW 18:37:31 58° WNW 18:41:46 10° SSW
USA 267 3.2 18:37:47 49° NE 18:39:44 77° NNW 18:46:15 10° WSW
USA 306 3.7 18:35:51 10° WNW 18:39:52 47° SW 18:39:52 47° SW
Landsat 5 4.5 18:41:36 38° SSW 18:41:36 38° SSW 18:44:07 10° SSW
Meteor 1-27 Rocket 3.6 18:39:44 10° SSW 18:45:15 85° W 18:46:30 56° N
YAOGAN 1 4.1 18:48:30 27° NNW 18:48:30 27° NNW 18:50:33 10° NNW
Cosmos 836 Rocket 4.5 18:42:50 10° SSW 18:48:09 81° WNW 18:48:20 79° NNW
Cosmos 2360 Rocket 2.2 18:43:20 10° NNW 18:49:01 78° WSW 18:50:08 58° S
USA 307 4.4 18:56:30 10° WNW 18:59:35 34° WSW 18:59:35 34° WSW
Lacrosse 5 rocket 4.3 19:00:29 10° W 19:02:17 13° SW 19:04:07 10° SSW
Cosmos 2322 Rocket 3.6 19:06:18 10° NW 19:11:27 36° WSW 19:16:34 10° S
COSMOS 2428 4.0 19:07:44 10° NNW 19:10:45 31° NNW 19:10:45 31° NNW
NOSS 3-4 (A) 3.7 19:09:58 10° NW 19:16:20 76° N 19:16:20 76° N
NOSS 3-4 (C) 3.7 19:10:04 10° NW 19:16:24 75° N 19:16:24 75° N
Okean O Rocket 4.1 19:14:48 10° SW 19:18:09 21° W 19:21:31 10° NW
ATLAS 2AS CENTAUR R/B 3.4 19:12:48 10° NW 19:18:44 45° N 19:18:44 45° N
Cosmos 1867 4.4 19:15:17 10° SW 19:19:10 47° WSW 19:19:10 47° WSW
GEOS 3 Rocket 4.5 19:23:02 46° WNW 19:23:02 46° WNW 19:26:47 10° NW
ATLAS CENTAUR R/B 4.3 19:19:54 10° NNW 19:20:20 12° NNW 19:20:20 12° NNW
ATLAS CENTAUR R/B 4.4 19:24:37 10° WNW 19:27:07 20° WNW 19:27:07 20° WNW
Cosmos 2237 Rocket 4.4 19:29:43 10° NNW 19:30:53 16° NNW 19:30:53 16° NNW
Cosmos 2082 Rocket 4.3 19:33:55 10° WNW 19:37:43 18° NNW 19:38:48 17° NNW
Cosmos 2333 Rocket 3.8 19:46:56 10° NW 19:50:07 31° NW 19:50:07 31° NW
Cosmos 2219 Rocket 4.1 19:54:31 10° NW 19:56:49 24° NW 19:56:49 24° NW
